星链-6304 (STARLINK-6304 )

导读 | 星芒AI

STARLINK-6304 是 SpaceX Starlink 卫星互联网项目中的一颗低轨卫星,属于第63批发射的星链卫星之一。该卫星旨在为全球用户提供高速、低延迟的宽带互联网服务,尤其服务于网络基础设施薄弱的地区。它运行在约550公里高的近地轨道,采用先进推进系统和激光通信技术,以提高网络效率和稳定性。Starlink 项目计划部署数万颗卫星,构建覆盖全球的卫星互联网网络。

基本信息
目录编号:
56778
目录名称:
STARLINK-6304
国际标识:
2023-078M
轨道中心:
EARTH
卫星名称:
星链-6304
卫星全名:
星链-6304 (STARLINK-6304 )
卫星状态:
在轨 (已飞行935 天)
发射日期:
2023-05-31 UTC
国别 :
美国 (US)
星等 :
--
轨道信息
数据来源 国际轨道数据
星历时间: 2025-12-21T22:34:27+0800
6小时前
查看轨道信息
半长轴: 6950.239km
偏心率: 0.0002073
轨道倾角: 69.999°
近地点辐角 268.125°
升交点赤经 161.484°
平近点角 91.968°
近地点: 570.661km
远地点: 573.543km
周期: 96.108分钟
每日圈数: 14.983153
详细信息
固有亮度:
5
最大亮度:
2.5
卫星平台:
Starlink v1.5
覆盖范围:
全球
运营商:
太空探索技术公司
运营商所在国:
美国
制造商(研发单位):
太空探索技术公司
制造商所在国:
美国
使用方式:
暂无
卫星简介
星链(Starlink)计划是由太空探索技术公司(SpaceX)提出的一个巨型低轨卫星互联网星座项目,计划在2019年至2024年间在太空搭建由约1.2万颗卫星组成的“星链”网络,其中1584颗将部署在地球上空550千米处的近地轨道,并从2020年开始工作。该卫星仍在工作。
2D轨道图
3D轨道图
轨道高度分析图
轨道倾角分析图
轨道综合分析图
查看轨道综合分析图